Location: Trois-Rivi�res
(46.3500°N, 72.5500°W)
Time: 01:24:14
(UTC-04:00)

Cosmos 1544 - Visible Passes

Search period start: 06 May 2015 00:00
Search period end: 16 May 2015 00:00
Orbit: 492 x 511 km, 82.5° (Epoch: 05 May)

Date Brightness Start Highest point End Pass type
(mag) Time Alt. Az. Time Alt. Az. Time Alt. Az.
06 May 6.0 01:29:13 10° NE 01:30:20 11° ENE 01:31:37 10° E visible
06 May 3.1 03:02:32 10° NNW 03:06:17 61° W 03:06:29 60° WSW visible
07 May 3.0 02:43:03 10° N 02:46:51 86° W 02:46:57 84° SSW visible
08 May 3.3 02:23:36 10° N 02:27:23 68° E 02:27:25 68° E visible
09 May 3.8 02:04:12 10° N 02:07:53 49° ENE 02:07:53 49° ENE visible
09 May 5.3 03:41:10 10° WNW 03:42:35 13° W 03:42:35 13° W visible
10 May 4.4 01:44:51 10° N 01:48:21 35° ENE 01:48:23 35° ENE visible
10 May 5.0 03:21:02 10° NW 03:23:05 17° WNW 03:23:05 17° WNW visible
11 May 4.8 01:25:33 10° NNE 01:28:46 26° ENE 01:28:53 26° ENE visible
11 May 4.7 03:01:08 10° NW 03:03:35 22° WNW 03:03:35 22° WNW visible
12 May 5.2 01:06:21 10° NNE 01:09:10 20° ENE 01:09:24 20° ENE visible
12 May 4.4 02:41:22 10° NNW 02:44:05 28° WNW 02:44:05 28° WNW visible
13 May 5.5 00:47:16 10° NNE 00:49:31 15° ENE 00:49:54 15° ENE visible
13 May 4.0 02:21:41 10° NNW 02:24:36 37° WNW 02:24:36 37° WNW visible
14 May 5.8 00:28:30 10° NE 00:29:51 12° ENE 00:30:25 12° ENE visible
14 May 3.7 02:02:04 10° NNW 02:05:07 48° NW 02:05:07 48° NW visible
15 May 3.5 01:42:29 10° N 01:45:39 60° NNW 01:45:39 60° NNW visible
